Location: Milton
(43.5183°N, 79.8775°W)
Time: 14:00:25
(UTC+00:00)

UNISAT 6 - Pass Details

Date: 22 March 2023
Orbit: 599 x 680 km, 97.7° (Epoch: 02 June)

Event Time Altitude Azimuth Distance (km) Brightness Sun altitude
Rises 09:20:51 0° 141° (SE) 2,865 ? -21.8°
Reaches altitude 10° 09:23:10 10° 131° (SE) 1,976 ? -21.4°
Maximum altitude 09:26:57 31° 69° (ENE) 1,100 ? -20.7°
Drops below altitude 10° 09:30:51 10° 7° (N) 2,032 ? -20.1°
Sets 09:33:16 0° 357° (N) 2,961 ? -19.7°
